owner,sensor,date,latitude,longitude,vertical_datum,wind_speed,wind_to_direction,wind_speed_of_gust,qcFlag 
LUMCON,ioos:station:LUMCON:102:1,2017-01-01T00:00:00Z,29.1870,-90.6093,0.0,10.3,189.0,-9999.0,'1111122,1111122,1111122' 
LUMCON,ioos:station:LUMCON:102:1,2017-01-01T00:15:00Z,29.1870,-90.6093,0.0,9.6,192.0,-9999.0,'1111122,1111122,1111122' 
LUMCON,ioos:station:LUMCON:102:1,2017-01-01T00:30:00Z,29.1870,-90.6093,0.0,10.4,193.0,-9999.0,'1111122,1111122,1111122' 
LUMCON,ioos:station:LUMCON:102:1,2017-01-01T00:45:00Z,29.1870,-90.6093,0.0,8.9,193.0,-9999.0,'1111122,1111122,1111122' 
LUMCON,ioos:station:LUMCON:102:1,2017-01-01T01:00:00Z,29.1870,-90.6093,0.0,8.7,186.0,-9999.0,'1111122,1111122,1111122' 
LUMCON,ioos:station:LUMCON:102:1,2017-01-01T01:15:00Z,29.1870,-90.6093,0.0,8.4,191.0,-9999.0,'1111122,1111122,1111122' 
LUMCON,ioos:station:LUMCON:102:1,2017-01-01T01:30:00Z,29.1870,-90.6093,0.0,8.8,189.0,-9999.0,'1111122,1111122,1111122' 
LUMCON,ioos:station:LUMCON:102:1,2017-01-01T01:45:00Z,29.1870,-90.6093,0.0,8.1,189.0,-9999.0,'1111122,1111122,1111122' 
LUMCON,ioos:station:LUMCON:102:1,2017-01-01T02:00:00Z,29.1870,-90.6093,0.0,7.7,184.0,-9999.0,'1111122,1111122,1111122' 
LUMCON,ioos:station:LUMCON:102:1,2017-01-01T02:15:00Z,29.1870,-90.6093,0.0,5.8,178.0,-9999.0,'1111122,1111122,1111122' 
LUMCON,ioos:station:LUMCON:102:1,2017-01-01T02:30:00Z,29.1870,-90.6093,0.0,5.4,179.0,-9999.0,'1111122,1111122,1111122' 
LUMCON,ioos:station:LUMCON:102:1,2017-01-01T02:45:00Z,29.1870,-90.6093,0.0,6.5,172.0,-9999.0,'1111122,1111122,1111122' 
LUMCON,ioos:station:LUMCON:102:1,2017-01-01T03:00:00Z,29.1870,-90.6093,0.0,7.0,170.0,-9999.0,'1111122,1111122,1111122' 
LUMCON,ioos:station:LUMCON:102:1,2017-01-01T03:15:00Z,29.1870,-90.6093,0.0,7.3,184.0,-9999.0,'1111122,1111122,1111122' 
LUMCON,ioos:station:LUMCON:102:1,2017-01-01T03:30:00Z,29.1870,-90.6093,0.0,8.4,191.0,-9999.0,'1111122,1111122,1111122' 
LUMCON,ioos:station:LUMCON:102:1,2017-01-01T03:45:00Z,29.1870,-90.6093,0.0,8.4,185.0,-9999.0,'1111122,1111122,1111122' 
LUMCON,ioos:station:LUMCON:102:1,2017-01-01T04:00:00Z,29.1870,-90.6093,0.0,12.3,187.0,-9999.0,'1111122,1111122,1111122' 
LUMCON,ioos:station:LUMCON:102:1,2017-01-01T04:15:00Z,29.1870,-90.6093,0.0,10.9,200.0,-9999.0,'1111122,1111122,1111122' 
LUMCON,ioos:station:LUMCON:102:1,2017-01-01T04:30:00Z,29.1870,-90.6093,0.0,9.5,195.0,-9999.0,'1111122,1111122,1111122' 
LUMCON,ioos:station:LUMCON:102:1,2017-01-01T04:45:00Z,29.1870,-90.6093,0.0,8.4,197.0,-9999.0,'1111122,1111122,1111122' 
LUMCON,ioos:station:LUMCON:102:1,2017-01-01T05:00:00Z,29.1870,-90.6093,0.0,10.4,199.0,-9999.0,'1111122,1111122,1111122' 
LUMCON,ioos:station:LUMCON:102:1,2017-01-01T05:15:00Z,29.1870,-90.6093,0.0,9.6,194.0,-9999.0,'1111122,1111122,1111122' 
LUMCON,ioos:station:LUMCON:102:1,2017-01-01T05:30:00Z,29.1870,-90.6093,0.0,9.8,194.0,-9999.0,'1111122,1111122,1111122' 
LUMCON,ioos:station:LUMCON:102:1,2017-01-01T05:45:00Z,29.1870,-90.6093,0.0,9.6,200.0,-9999.0,'1111122,1111122,1111122' 
LUMCON,ioos:station:LUMCON:102:1,2017-01-01T06:00:00Z,29.1870,-90.6093,0.0,8.9,201.0,-9999.0,'1111122,1111122,1111122' 
LUMCON,ioos:station:LUMCON:102:1,2017-01-01T06:15:00Z,29.1870,-90.6093,0.0,8.3,202.0,-9999.0,'1111122,1111122,1111122' 
LUMCON,ioos:station:LUMCON:102:1,2017-01-01T06:30:00Z,29.1870,-90.6093,0.0,8.1,199.0,-9999.0,'1111122,1111122,1111122' 
LUMCON,ioos:station:LUMCON:102:1,2017-01-01T06:45:00Z,29.1870,-90.6093,0.0,8.3,205.0,-9999.0,'1111122,1111122,1111122' 
LUMCON,ioos:station:LUMCON:102:1,2017-01-01T07:00:00Z,29.1870,-90.6093,0.0,7.0,202.0,-9999.0,'1111122,1111122,1111122' 
LUMCON,ioos:station:LUMCON:102:1,2017-01-01T07:15:00Z,29.1870,-90.6093,0.0,6.2,205.0,-9999.0,'1111122,1111122,1111122' 
LUMCON,ioos:station:LUMCON:102:1,2017-01-01T07:30:00Z,29.1870,-90.6093,0.0,6.5,206.0,-9999.0,'1111122,1111122,1111122' 
LUMCON,ioos:station:LUMCON:102:1,2017-01-01T07:45:00Z,29.1870,-90.6093,0.0,5.9,199.0,-9999.0,'1111122,1111122,1111122' 
LUMCON,ioos:station:LUMCON:102:1,2017-01-01T08:00:00Z,29.1870,-90.6093,0.0,6.5,197.0,-9999.0,'1111122,1111122,1111122' 
LUMCON,ioos:station:LUMCON:102:1,2017-01-01T08:15:00Z,29.1870,-90.6093,0.0,6.5,197.0,-9999.0,'1111122,1111122,1111122' 
LUMCON,ioos:station:LUMCON:102:1,2017-01-01T08:30:00Z,29.1870,-90.6093,0.0,6.7,201.0,-9999.0,'1111122,1111122,1111122' 
LUMCON,ioos:station:LUMCON:102:1,2017-01-01T08:45:00Z,29.1870,-90.6093,0.0,6.3,203.0,-9999.0,'1111122,1111122,1111122' 
LUMCON,ioos:station:LUMCON:102:1,2017-01-01T09:00:00Z,29.1870,-90.6093,0.0,6.1,201.0,-9999.0,'1111122,1111122,1111122' 
LUMCON,ioos:station:LUMCON:102:1,2017-01-01T09:15:00Z,29.1870,-90.6093,0.0,6.1,194.0,-9999.0,'1111122,1111122,1111122' 
LUMCON,ioos:station:LUMCON:102:1,2017-01-01T09:30:00Z,29.1870,-90.6093,0.0,5.3,195.0,-9999.0,'1111122,1111122,1111122' 
LUMCON,ioos:station:LUMCON:102:1,2017-01-01T09:45:00Z,29.1870,-90.6093,0.0,5.2,193.0,-9999.0,'1111122,1111122,1111122' 
LUMCON,ioos:station:LUMCON:102:1,2017-01-01T10:00:00Z,29.1870,-90.6093,0.0,6.3,201.0,-9999.0,'1111122,1111122,1111122' 
LUMCON,ioos:station:LUMCON:102:1,2017-01-01T10:15:00Z,29.1870,-90.6093,0.0,6.5,199.0,-9999.0,'1111122,1111122,1111122' 
LUMCON,ioos:station:LUMCON:102:1,2017-01-01T10:30:00Z,29.1870,-90.6093,0.0,5.3,196.0,-9999.0,'1111122,1111122,1111122' 
LUMCON,ioos:station:LUMCON:102:1,2017-01-01T10:45:00Z,29.1870,-90.6093,0.0,4.5,203.0,-9999.0,'1111122,1111122,1111122' 
LUMCON,ioos:station:LUMCON:102:1,2017-01-01T11:00:00Z,29.1870,-90.6093,0.0,4.5,204.0,-9999.0,'1111122,1111122,1111122' 
LUMCON,ioos:station:LUMCON:102:1,2017-01-01T11:15:00Z,29.1870,-90.6093,0.0,3.7,191.0,-9999.0,'1111122,1111122,1111122' 
LUMCON,ioos:station:LUMCON:102:1,2017-01-01T11:30:00Z,29.1870,-90.6093,0.0,3.2,190.0,-9999.0,'1111122,1111122,1111122' 
LUMCON,ioos:station:LUMCON:102:1,2017-01-01T11:45:00Z,29.1870,-90.6093,0.0,2.8,201.0,-9999.0,'1111122,1111122,1111122' 
LUMCON,ioos:station:LUMCON:102:1,2017-01-01T12:00:00Z,29.1870,-90.6093,0.0,3.1,198.0,-9999.0,'1111122,1111122,1111122' 
LUMCON,ioos:station:LUMCON:102:1,2017-01-01T12:15:00Z,29.1870,-90.6093,0.0,3.3,195.0,-9999.0,'1111122,1111122,1111122' 
LUMCON,ioos:station:LUMCON:102:1,2017-01-01T12:30:00Z,29.1870,-90.6093,0.0,3.7,204.0,-9999.0,'1111122,1111122,1111122' 
LUMCON,ioos:station:LUMCON:102:1,2017-01-01T12:45:00Z,29.1870,-90.6093,0.0,4.8,206.0,-9999.0,'1111122,1111122,1111122' 
LUMCON,ioos:station:LUMCON:102:1,2017-01-01T13:00:00Z,29.1870,-90.6093,0.0,4.7,204.0,-9999.0,'1111122,1111122,1111122' 
LUMCON,ioos:station:LUMCON:102:1,2017-01-01T13:15:00Z,29.1870,-90.6093,0.0,6.0,209.0,-9999.0,'1111122,1111122,1111122' 
LUMCON,ioos:station:LUMCON:102:1,2017-01-01T13:30:00Z,29.1870,-90.6093,0.0,5.5,210.0,-9999.0,'1111122,1111122,1111122' 
LUMCON,ioos:station:LUMCON:102:1,2017-01-01T13:45:00Z,29.1870,-90.6093,0.0,5.4,201.0,-9999.0,'1111122,1111122,1111122' 
LUMCON,ioos:station:LUMCON:102:1,2017-01-01T14:00:00Z,29.1870,-90.6093,0.0,5.2,218.0,-9999.0,'1111122,1111122,1111122' 
LUMCON,ioos:station:LUMCON:102:1,2017-01-01T14:15:00Z,29.1870,-90.6093,0.0,7.0,225.0,-9999.0,'1111122,1111122,1111122' 
LUMCON,ioos:station:LUMCON:102:1,2017-01-01T14:30:00Z,29.1870,-90.6093,0.0,5.7,208.0,-9999.0,'1111122,1111122,1111122' 
LUMCON,ioos:station:LUMCON:102:1,2017-01-01T14:45:00Z,29.1870,-90.6093,0.0,7.3,205.0,-9999.0,'1111122,1111122,1111122' 
LUMCON,ioos:station:LUMCON:102:1,2017-01-01T15:00:00Z,29.1870,-90.6093,0.0,7.4,201.0,-9999.0,'1111122,1111122,1111122' 
LUMCON,ioos:station:LUMCON:102:1,2017-01-01T15:15:00Z,29.1870,-90.6093,0.0,7.9,206.0,-9999.0,'1111122,1111122,1111122' 
LUMCON,ioos:station:LUMCON:102:1,2017-01-01T15:30:00Z,29.1870,-90.6093,0.0,5.6,204.0,-9999.0,'1111122,1111122,1111122' 
LUMCON,ioos:station:LUMCON:102:1,2017-01-01T15:45:00Z,29.1870,-90.6093,0.0,4.9,199.0,-9999.0,'1111122,1111122,1111122' 
LUMCON,ioos:station:LUMCON:102:1,2017-01-01T16:00:00Z,29.1870,-90.6093,0.0,5.4,195.0,-9999.0,'1111122,1111122,1111122' 
LUMCON,ioos:station:LUMCON:102:1,2017-01-01T16:15:00Z,29.1870,-90.6093,0.0,4.8,191.0,-9999.0,'1111122,1111122,1111122' 
LUMCON,ioos:station:LUMCON:102:1,2017-01-01T16:30:00Z,29.1870,-90.6093,0.0,4.5,189.0,-9999.0,'1111122,1111122,1111122' 
LUMCON,ioos:station:LUMCON:102:1,2017-01-01T16:45:00Z,29.1870,-90.6093,0.0,5.1,190.0,-9999.0,'1111122,1111122,1111122' 
LUMCON,ioos:station:LUMCON:102:1,2017-01-01T17:00:00Z,29.1870,-90.6093,0.0,5.7,196.0,-9999.0,'1111122,1111122,1111122' 
LUMCON,ioos:station:LUMCON:102:1,2017-01-01T17:15:00Z,29.1870,-90.6093,0.0,5.7,193.0,-9999.0,'1111122,1111122,1111122' 
LUMCON,ioos:station:LUMCON:102:1,2017-01-01T17:30:00Z,29.1870,-90.6093,0.0,6.2,196.0,-9999.0,'1111122,1111122,1111122' 
LUMCON,ioos:station:LUMCON:102:1,2017-01-01T17:45:00Z,29.1870,-90.6093,0.0,5.6,197.0,-9999.0,'1111122,1111122,1111122' 
LUMCON,ioos:station:LUMCON:102:1,2017-01-01T18:00:00Z,29.1870,-90.6093,0.0,5.5,194.0,-9999.0,'1111122,1111122,1111122' 
LUMCON,ioos:station:LUMCON:102:1,2017-01-01T18:15:00Z,29.1870,-90.6093,0.0,5.6,194.0,-9999.0,'1111122,1111122,1111122' 
LUMCON,ioos:station:LUMCON:102:1,2017-01-01T18:30:00Z,29.1870,-90.6093,0.0,5.1,191.0,-9999.0,'1111122,1111122,1111122' 
LUMCON,ioos:station:LUMCON:102:1,2017-01-01T18:45:00Z,29.1870,-90.6093,0.0,4.6,188.0,-9999.0,'1111122,1111122,1111122' 
LUMCON,ioos:station:LUMCON:102:1,2017-01-01T19:00:00Z,29.1870,-90.6093,0.0,4.3,186.0,-9999.0,'1111122,1111122,1111122' 
LUMCON,ioos:station:LUMCON:102:1,2017-01-01T19:15:00Z,29.1870,-90.6093,0.0,4.3,187.0,-9999.0,'1111122,1111122,1111122' 
LUMCON,ioos:station:LUMCON:102:1,2017-01-01T19:30:00Z,29.1870,-90.6093,0.0,5.4,183.0,-9999.0,'1111122,1111122,1111122' 
LUMCON,ioos:station:LUMCON:102:1,2017-01-01T19:45:00Z,29.1870,-90.6093,0.0,4.9,192.0,-9999.0,'1111122,1111122,1111122' 
LUMCON,ioos:station:LUMCON:102:1,2017-01-01T20:00:00Z,29.1870,-90.6093,0.0,5.1,186.0,-9999.0,'1111122,1111122,1111122' 
LUMCON,ioos:station:LUMCON:102:1,2017-01-01T20:15:00Z,29.1870,-90.6093,0.0,5.5,193.0,-9999.0,'1111122,1111122,1111122' 
LUMCON,ioos:station:LUMCON:102:1,2017-01-01T20:30:00Z,29.1870,-90.6093,0.0,6.8,189.0,-9999.0,'1111122,1111122,1111122' 
LUMCON,ioos:station:LUMCON:102:1,2017-01-01T20:45:00Z,29.1870,-90.6093,0.0,7.1,198.0,-9999.0,'1111122,1111122,1111122' 
LUMCON,ioos:station:LUMCON:102:1,2017-01-01T21:00:00Z,29.1870,-90.6093,0.0,7.1,193.0,-9999.0,'1111122,1111122,1111122' 
LUMCON,ioos:station:LUMCON:102:1,2017-01-01T21:15:00Z,29.1870,-90.6093,0.0,7.2,176.0,-9999.0,'1111122,1111122,1111122' 
LUMCON,ioos:station:LUMCON:102:1,2017-01-01T21:30:00Z,29.1870,-90.6093,0.0,7.5,169.0,-9999.0,'1111122,1111122,1111122' 
LUMCON,ioos:station:LUMCON:102:1,2017-01-01T21:45:00Z,29.1870,-90.6093,0.0,8.2,173.0,-9999.0,'1111122,1111122,1111122' 
LUMCON,ioos:station:LUMCON:102:1,2017-01-01T22:00:00Z,29.1870,-90.6093,0.0,7.8,193.0,-9999.0,'1111122,1111122,1111122' 
LUMCON,ioos:station:LUMCON:102:1,2017-01-01T22:15:00Z,29.1870,-90.6093,0.0,9.5,185.0,-9999.0,'1111122,1111122,1111122' 
LUMCON,ioos:station:LUMCON:102:1,2017-01-01T22:30:00Z,29.1870,-90.6093,0.0,7.8,201.0,-9999.0,'1111122,1111122,1111122' 
LUMCON,ioos:station:LUMCON:102:1,2017-01-01T23:00:00Z,29.1870,-90.6093,0.0,6.5,292.0,-9999.0,'1111122,1111122,1111122' 
LUMCON,ioos:station:LUMCON:102:1,2017-01-01T23:15:00Z,29.1870,-90.6093,0.0,9.0,337.0,-9999.0,'1111122,1111122,1111122' 
LUMCON,ioos:station:LUMCON:102:1,2017-01-01T23:30:00Z,29.1870,-90.6093,0.0,5.5,326.0,-9999.0,'1111122,1111122,1111122' 
LUMCON,ioos:station:LUMCON:102:1,2017-01-01T23:45:00Z,29.1870,-90.6093,0.0,7.4,343.0,-9999.0,'1111122,1111122,1111122' 
LUMCON,ioos:station:LUMCON:102:1,2017-01-02T00:00:00Z,29.1870,-90.6093,0.0,9.0,303.0,-9999.0,'1111122,1111122,1111122' 
LUMCON,ioos:station:LUMCON:102:1,2017-01-02T00:15:00Z,29.1870,-90.6093,0.0,6.5,294.0,-9999.0,'1111122,1111122,1111122' 
LUMCON,ioos:station:LUMCON:102:1,2017-01-02T00:30:00Z,29.1870,-90.6093,0.0,1.6,14.0,-9999.0,'1111122,1111122,1111122' 
LUMCON,ioos:station:LUMCON:102:1,2017-01-02T00:45:00Z,29.1870,-90.6093,0.0,2.0,43.0,-9999.0,'1111122,1111122,1111122' 
LUMCON,ioos:station:LUMCON:102:1,2017-01-02T01:00:00Z,29.1870,-90.6093,0.0,1.9,75.0,-9999.0,'1111122,1111122,1111122' 
LUMCON,ioos:station:LUMCON:102:1,2017-01-02T01:15:00Z,29.1870,-90.6093,0.0,5.2,95.0,-9999.0,'1111122,1111122,1111122' 
LUMCON,ioos:station:LUMCON:102:1,2017-01-02T01:30:00Z,29.1870,-90.6093,0.0,5.5,106.0,-9999.0,'1111122,1111122,1111122' 
LUMCON,ioos:station:LUMCON:102:1,2017-01-02T01:45:00Z,29.1870,-90.6093,0.0,5.9,121.0,-9999.0,'1111122,1111122,1111122' 
LUMCON,ioos:station:LUMCON:102:1,2017-01-02T02:00:00Z,29.1870,-90.6093,0.0,6.1,115.0,-9999.0,'1111122,1111122,1111122' 
LUMCON,ioos:station:LUMCON:102:1,2017-01-02T02:15:00Z,29.1870,-90.6093,0.0,7.2,118.0,-9999.0,'1111122,1111122,1111122' 
LUMCON,ioos:station:LUMCON:102:1,2017-01-02T02:30:00Z,29.1870,-90.6093,0.0,7.3,117.0,-9999.0,'1111122,1111122,1111122' 
LUMCON,ioos:station:LUMCON:102:1,2017-01-02T02:45:00Z,29.1870,-90.6093,0.0,5.7,122.0,-9999.0,'1111122,1111122,1111122' 
LUMCON,ioos:station:LUMCON:102:1,2017-01-02T03:00:00Z,29.1870,-90.6093,0.0,6.2,117.0,-9999.0,'1111122,1111122,1111122' 
LUMCON,ioos:station:LUMCON:102:1,2017-01-02T03:15:00Z,29.1870,-90.6093,0.0,5.4,109.0,-9999.0,'1111122,1111122,1111122' 
LUMCON,ioos:station:LUMCON:102:1,2017-01-02T03:30:00Z,29.1870,-90.6093,0.0,2.9,92.0,-9999.0,'1111122,1111122,1111122' 
LUMCON,ioos:station:LUMCON:102:1,2017-01-02T03:45:00Z,29.1870,-90.6093,0.0,6.2,126.0,-9999.0,'1111122,1111122,1111122' 
LUMCON,ioos:station:LUMCON:102:1,2017-01-02T04:00:00Z,29.1870,-90.6093,0.0,5.7,125.0,-9999.0,'1111122,1111122,1111122' 
LUMCON,ioos:station:LUMCON:102:1,2017-01-02T04:15:00Z,29.1870,-90.6093,0.0,6.0,120.0,-9999.0,'1111122,1111122,1111122' 
LUMCON,ioos:station:LUMCON:102:1,2017-01-02T04:30:00Z,29.1870,-90.6093,0.0,6.5,120.0,-9999.0,'1111122,1111122,1111122' 
LUMCON,ioos:station:LUMCON:102:1,2017-01-02T04:45:00Z,29.1870,-90.6093,0.0,6.2,115.0,-9999.0,'1111122,1111122,1111122' 
LUMCON,ioos:station:LUMCON:102:1,2017-01-02T05:00:00Z,29.1870,-90.6093,0.0,5.4,104.0,-9999.0,'1111122,1111122,1111122' 
LUMCON,ioos:station:LUMCON:102:1,2017-01-02T05:15:00Z,29.1870,-90.6093,0.0,6.5,111.0,-9999.0,'1111122,1111122,1111122' 
LUMCON,ioos:station:LUMCON:102:1,2017-01-02T05:30:00Z,29.1870,-90.6093,0.0,5.7,116.0,-9999.0,'1111122,1111122,1111122' 
LUMCON,ioos:station:LUMCON:102:1,2017-01-02T05:45:00Z,29.1870,-90.6093,0.0,6.1,111.0,-9999.0,'1111122,1111122,1111122' 
LUMCON,ioos:station:LUMCON:102:1,2017-01-02T06:00:00Z,29.1870,-90.6093,0.0,5.1,104.0,-9999.0,'1111122,1111122,1111122' 
LUMCON,ioos:station:LUMCON:102:1,2017-01-02T06:15:00Z,29.1870,-90.6093,0.0,5.3,102.0,-9999.0,'1111122,1111122,1111122' 
LUMCON,ioos:station:LUMCON:102:1,2017-01-02T06:30:00Z,29.1870,-90.6093,0.0,4.8,116.0,-9999.0,'1111122,1111122,1111122' 
LUMCON,ioos:station:LUMCON:102:1,2017-01-02T06:45:00Z,29.1870,-90.6093,0.0,4.9,112.0,-9999.0,'1111122,1111122,1111122' 
LUMCON,ioos:station:LUMCON:102:1,2017-01-02T07:00:00Z,29.1870,-90.6093,0.0,5.4,106.0,-9999.0,'1111122,1111122,1111122' 
LUMCON,ioos:station:LUMCON:102:1,2017-01-02T07:15:00Z,29.1870,-90.6093,0.0,4.6,106.0,-9999.0,'1111122,1111122,1111122' 
LUMCON,ioos:station:LUMCON:102:1,2017-01-02T07:30:00Z,29.1870,-90.6093,0.0,4.5,109.0,-9999.0,'1111122,1111122,1111122' 
LUMCON,ioos:station:LUMCON:102:1,2017-01-02T07:45:00Z,29.1870,-90.6093,0.0,5.3,109.0,-9999.0,'1111122,1111122,1111122' 
LUMCON,ioos:station:LUMCON:102:1,2017-01-02T08:00:00Z,29.1870,-90.6093,0.0,5.2,103.0,-9999.0,'1111122,1111122,1111122' 
LUMCON,ioos:station:LUMCON:102:1,2017-01-02T08:15:00Z,29.1870,-90.6093,0.0,5.4,109.0,-9999.0,'1111122,1111122,1111122' 
LUMCON,ioos:station:LUMCON:102:1,2017-01-02T08:30:00Z,29.1870,-90.6093,0.0,5.5,116.0,-9999.0,'1111122,1111122,1111122' 
LUMCON,ioos:station:LUMCON:102:1,2017-01-02T08:45:00Z,29.1870,-90.6093,0.0,4.7,119.0,-9999.0,'1111122,1111122,1111122' 
LUMCON,ioos:station:LUMCON:102:1,2017-01-02T09:00:00Z,29.1870,-90.6093,0.0,4.6,117.0,-9999.0,'1111122,1111122,1111122' 
LUMCON,ioos:station:LUMCON:102:1,2017-01-02T09:15:00Z,29.1870,-90.6093,0.0,4.8,126.0,-9999.0,'1111122,1111122,1111122' 
LUMCON,ioos:station:LUMCON:102:1,2017-01-02T09:30:00Z,29.1870,-90.6093,0.0,5.5,135.0,-9999.0,'1111122,1111122,1111122' 
LUMCON,ioos:station:LUMCON:102:1,2017-01-02T09:45:00Z,29.1870,-90.6093,0.0,5.5,136.0,-9999.0,'1111122,1111122,1111122' 
LUMCON,ioos:station:LUMCON:102:1,2017-01-02T10:00:00Z,29.1870,-90.6093,0.0,5.5,137.0,-9999.0,'1111122,1111122,1111122' 
LUMCON,ioos:station:LUMCON:102:1,2017-01-02T10:15:00Z,29.1870,-90.6093,0.0,6.4,142.0,-9999.0,'1111122,1111122,1111122' 
LUMCON,ioos:station:LUMCON:102:1,2017-01-02T10:30:00Z,29.1870,-90.6093,0.0,5.8,137.0,-9999.0,'1111122,1111122,1111122' 
LUMCON,ioos:station:LUMCON:102:1,2017-01-02T10:45:00Z,29.1870,-90.6093,0.0,6.5,143.0,-9999.0,'1111122,1111122,1111122' 
LUMCON,ioos:station:LUMCON:102:1,2017-01-02T11:00:00Z,29.1870,-90.6093,0.0,6.8,144.0,-9999.0,'1111122,1111122,1111122' 
LUMCON,ioos:station:LUMCON:102:1,2017-01-02T11:15:00Z,29.1870,-90.6093,0.0,5.3,145.0,-9999.0,'1111122,1111122,1111122' 
LUMCON,ioos:station:LUMCON:102:1,2017-01-02T11:30:00Z,29.1870,-90.6093,0.0,6.1,154.0,-9999.0,'1111122,1111122,1111122' 
LUMCON,ioos:station:LUMCON:102:1,2017-01-02T11:45:00Z,29.1870,-90.6093,0.0,6.1,153.0,-9999.0,'1111122,1111122,1111122' 
LUMCON,ioos:station:LUMCON:102:1,2017-01-02T12:00:00Z,29.1870,-90.6093,0.0,5.7,153.0,-9999.0,'1111122,1111122,1111122' 
LUMCON,ioos:station:LUMCON:102:1,2017-01-02T12:15:00Z,29.1870,-90.6093,0.0,6.0,159.0,-9999.0,'1111122,1111122,1111122' 
LUMCON,ioos:station:LUMCON:102:1,2017-01-02T12:30:00Z,29.1870,-90.6093,0.0,7.4,155.0,-9999.0,'1111122,1111122,1111122' 
LUMCON,ioos:station:LUMCON:102:1,2017-01-02T12:45:00Z,29.1870,-90.6093,0.0,7.2,153.0,-9999.0,'1111122,1111122,1111122' 
LUMCON,ioos:station:LUMCON:102:1,2017-01-02T13:00:00Z,29.1870,-90.6093,0.0,7.7,157.0,-9999.0,'1111122,1111122,1111122' 
LUMCON,ioos:station:LUMCON:102:1,2017-01-02T13:15:00Z,29.1870,-90.6093,0.0,6.1,172.0,-9999.0,'1111122,1111122,1111122' 
LUMCON,ioos:station:LUMCON:102:1,2017-01-02T13:30:00Z,29.1870,-90.6093,0.0,5.6,156.0,-9999.0,'1111122,1111122,1111122' 
LUMCON,ioos:station:LUMCON:102:1,2017-01-02T13:45:00Z,29.1870,-90.6093,0.0,4.7,159.0,-9999.0,'1111122,1111122,1111122' 
LUMCON,ioos:station:LUMCON:102:1,2017-01-02T14:00:00Z,29.1870,-90.6093,0.0,4.6,159.0,-9999.0,'1111122,1111122,1111122' 
LUMCON,ioos:station:LUMCON:102:1,2017-01-02T14:15:00Z,29.1870,-90.6093,0.0,3.3,180.0,-9999.0,'1111122,1111122,1111122' 
LUMCON,ioos:station:LUMCON:102:1,2017-01-02T14:30:00Z,29.1870,-90.6093,0.0,5.2,172.0,-9999.0,'1111122,1111122,1111122' 
LUMCON,ioos:station:LUMCON:102:1,2017-01-02T14:45:00Z,29.1870,-90.6093,0.0,6.3,169.0,-9999.0,'1111122,1111122,1111122' 
LUMCON,ioos:station:LUMCON:102:1,2017-01-02T15:00:00Z,29.1870,-90.6093,0.0,6.9,172.0,-9999.0,'1111122,1111122,1111122' 
LUMCON,ioos:station:LUMCON:102:1,2017-01-02T15:15:00Z,29.1870,-90.6093,0.0,9.9,177.0,-9999.0,'1111122,1111122,1111122' 
LUMCON,ioos:station:LUMCON:102:1,2017-01-02T15:30:00Z,29.1870,-90.6093,0.0,10.1,176.0,-9999.0,'1111122,1111122,1111122' 
LUMCON,ioos:station:LUMCON:102:1,2017-01-02T15:45:00Z,29.1870,-90.6093,0.0,9.9,181.0,-9999.0,'1111122,1111122,1111122' 
LUMCON,ioos:station:LUMCON:102:1,2017-01-02T16:00:00Z,29.1870,-90.6093,0.0,11.0,180.0,-9999.0,'1111122,1111122,1111122' 
LUMCON,ioos:station:LUMCON:102:1,2017-01-02T16:15:00Z,29.1870,-90.6093,0.0,11.9,184.0,-9999.0,'1111122,1111122,1111122' 
LUMCON,ioos:station:LUMCON:102:1,2017-01-02T16:30:00Z,29.1870,-90.6093,0.0,11.6,186.0,-9999.0,'1111122,1111122,1111122' 
LUMCON,ioos:station:LUMCON:102:1,2017-01-02T16:45:00Z,29.1870,-90.6093,0.0,10.7,190.0,-9999.0,'1111122,1111122,1111122' 
LUMCON,ioos:station:LUMCON:102:1,2017-01-02T17:00:00Z,29.1870,-90.6093,0.0,10.7,188.0,-9999.0,'1111122,1111122,1111122' 
LUMCON,ioos:station:LUMCON:102:1,2017-01-02T17:15:00Z,29.1870,-90.6093,0.0,10.0,197.0,-9999.0,'1111122,1111122,1111122' 
LUMCON,ioos:station:LUMCON:102:1,2017-01-02T17:30:00Z,29.1870,-90.6093,0.0,10.2,198.0,-9999.0,'1111122,1111122,1111122' 
LUMCON,ioos:station:LUMCON:102:1,2017-01-02T17:45:00Z,29.1870,-90.6093,0.0,9.7,198.0,-9999.0,'1111122,1111122,1111122' 
LUMCON,ioos:station:LUMCON:102:1,2017-01-02T18:00:00Z,29.1870,-90.6093,0.0,10.3,198.0,-9999.0,'1111122,1111122,1111122' 
LUMCON,ioos:station:LUMCON:102:1,2017-01-02T18:15:00Z,29.1870,-90.6093,0.0,10.5,199.0,-9999.0,'1111122,1111122,1111122' 
LUMCON,ioos:station:LUMCON:102:1,2017-01-02T18:30:00Z,29.1870,-90.6093,0.0,11.2,203.0,-9999.0,'1111122,1111122,1111122' 
LUMCON,ioos:station:LUMCON:102:1,2017-01-02T18:45:00Z,29.1870,-90.6093,0.0,9.9,204.0,-9999.0,'1111122,1111122,1111122' 
LUMCON,ioos:station:LUMCON:102:1,2017-01-02T19:00:00Z,29.1870,-90.6093,0.0,10.2,207.0,-9999.0,'1111122,1111122,1111122' 
LUMCON,ioos:station:LUMCON:102:1,2017-01-02T19:15:00Z,29.1870,-90.6093,0.0,9.8,210.0,-9999.0,'1111122,1111122,1111122' 
LUMCON,ioos:station:LUMCON:102:1,2017-01-02T19:30:00Z,29.1870,-90.6093,0.0,11.0,215.0,-9999.0,'1111122,1111122,1111122' 
LUMCON,ioos:station:LUMCON:102:1,2017-01-02T19:45:00Z,29.1870,-90.6093,0.0,9.6,212.0,-9999.0,'1111122,1111122,1111122' 
LUMCON,ioos:station:LUMCON:102:1,2017-01-02T20:00:00Z,29.1870,-90.6093,0.0,9.1,213.0,-9999.0,'1111122,1111122,1111122' 
LUMCON,ioos:station:LUMCON:102:1,2017-01-02T20:15:00Z,29.1870,-90.6093,0.0,10.0,216.0,-9999.0,'1111122,1111122,1111122' 
LUMCON,ioos:station:LUMCON:102:1,2017-01-02T20:30:00Z,29.1870,-90.6093,0.0,9.2,208.0,-9999.0,'1111122,1111122,1111122' 
LUMCON,ioos:station:LUMCON:102:1,2017-01-02T20:45:00Z,29.1870,-90.6093,0.0,10.4,212.0,-9999.0,'1111122,1111122,1111122' 
LUMCON,ioos:station:LUMCON:102:1,2017-01-02T21:00:00Z,29.1870,-90.6093,0.0,9.9,208.0,-9999.0,'1111122,1111122,1111122' 
LUMCON,ioos:station:LUMCON:102:1,2017-01-02T21:15:00Z,29.1870,-90.6093,0.0,10.4,211.0,-9999.0,'1111122,1111122,1111122' 
LUMCON,ioos:station:LUMCON:102:1,2017-01-02T21:30:00Z,29.1870,-90.6093,0.0,8.3,204.0,-9999.0,'1111122,1111122,1111122' 
LUMCON,ioos:station:LUMCON:102:1,2017-01-02T21:45:00Z,29.1870,-90.6093,0.0,8.1,212.0,-9999.0,'1111122,1111122,1111122' 
LUMCON,ioos:station:LUMCON:102:1,2017-01-02T22:00:00Z,29.1870,-90.6093,0.0,7.2,195.0,-9999.0,'1111122,1111122,1111122' 
LUMCON,ioos:station:LUMCON:102:1,2017-01-02T22:15:00Z,29.1870,-90.6093,0.0,9.9,261.0,-9999.0,'1111122,1111122,1111122' 
LUMCON,ioos:station:LUMCON:102:1,2017-01-02T22:30:00Z,29.1870,-90.6093,0.0,12.8,284.0,-9999.0,'1111122,1111122,1111122' 
LUMCON,ioos:station:LUMCON:102:1,2017-01-02T22:45:00Z,29.1870,-90.6093,0.0,5.5,292.0,-9999.0,'1111122,1111122,1111122' 
LUMCON,ioos:station:LUMCON:102:1,2017-01-02T23:00:00Z,29.1870,-90.6093,0.0,3.7,278.0,-9999.0,'1111122,1111122,1111122' 
LUMCON,ioos:station:LUMCON:102:1,2017-01-02T23:15:00Z,29.1870,-90.6093,0.0,5.9,262.0,-9999.0,'1111122,1111122,1111122' 
LUMCON,ioos:station:LUMCON:102:1,2017-01-02T23:30:00Z,29.1870,-90.6093,0.0,6.8,247.0,-9999.0,'1111122,1111122,1111122' 
LUMCON,ioos:station:LUMCON:102:1,2017-01-02T23:45:00Z,29.1870,-90.6093,0.0,5.2,218.0,-9999.0,'1111122,1111122,1111122' 
LUMCON,ioos:station:LUMCON:102:1,2017-01-03T00:00:00Z,29.1870,-90.6093,0.0,4.9,231.0,-9999.0,'1111122,1111122,1111122' 
LUMCON,ioos:station:LUMCON:102:1,2017-01-03T00:15:00Z,29.1870,-90.6093,0.0,4.8,212.0,-9999.0,'1111122,1111122,1111122' 
LUMCON,ioos:station:LUMCON:102:1,2017-01-03T00:30:00Z,29.1870,-90.6093,0.0,6.0,222.0,-9999.0,'1111122,1111122,1111122' 
LUMCON,ioos:station:LUMCON:102:1,2017-01-03T00:45:00Z,29.1870,-90.6093,0.0,5.5,222.0,-9999.0,'1111122,1111122,1111122' 
LUMCON,ioos:station:LUMCON:102:1,2017-01-03T01:00:00Z,29.1870,-90.6093,0.0,4.5,221.0,-9999.0,'1111122,1111122,1111122' 
LUMCON,ioos:station:LUMCON:102:1,2017-01-03T01:15:00Z,29.1870,-90.6093,0.0,4.2,212.0,-9999.0,'1111122,1111122,1111122' 
LUMCON,ioos:station:LUMCON:102:1,2017-01-03T01:30:00Z,29.1870,-90.6093,0.0,4.2,217.0,-9999.0,'1111122,1111122,1111122' 